Location: Darvault
(48.2697°N, 2.7308°E)
Time: 17:02:07
(UTC+00:00)

ISS - Pass Details

Date: 22 October 2025
Orbit: 415 x 421 km, 51.6° (Epoch: 13 November)

Event Time Altitude Azimuth Distance (km) Brightness Sun altitude
Exits shadow 03:27:04 17° 86° (E) 1,145 -0.8 -29.1°
Drops below altitude 10° 03:28:03 10° 78° (ENE) 1,506 0.0 -28.9°
Sets 03:30:15 0° 69° (ENE) 2,376 1.3 -28.6°
